Wind_Speed
11 11 11 11 13 14 16 17 16 15 14 14 13 13 13 13 12 12 10 6 6 4 6 9 9 11 13 12 12 11 11 11 11 10 6 4 2 2 6 6 15 6 12 14 9 13 7
10 9 9 10 11 13 15 17 17 16 16 14 13 12 12 13 13 13 12 10 7 6 7 5 8 13 15 14 13 14 14 13 13 13 9 2 3 3 4 4 9 7 11 9 6 7 3
9 9 9 9 9 11 13 15 17 18 17 17 16 15 14 14 14 13 13 12 8 7 7 9 12 12 14 16 14 16 15 14 14 13 9 4 7 6 3 5 1 5 11 5 4 7 7
8 7 7 7 8 9 10 13 15 17 18 18 18 17 16 16 16 16 14 12 9 8 8 9 10 13 14 15 16 16 18 16 16 15 9 12 11 8 4 6 5 5 5 3 3 7 9
7 6 6 6 6 7 8 9 11 13 15 17 18 18 18 17 17 17 15 12 10 11 10 10 10 12 12 13 14 16 15 15 15 12 13 18 14 9 7 13 8 4 7 2 4 11 4
6 6 7 7 7 7 7 8 9 11 12 13 15 17 18 18 17 17 16 13 10 11 11 10 8 10 11 11 11 12 14 16 16 13 16 18 12 12 9 10 10 0 3 4 4 7 4
5 7 9 9 9 9 8 9 9 10 11 11 11 12 14 16 17 17 17 16 15 14 13 9 5 6 8 11 11 10 11 12 13 15 15 12 13 14 7 13 15 13 11 6 4 6 7
9 11 12 12 11 11 11 11 12 13 13 14 14 13 13 13 15 16 16 15 12 12 11 8 7 5 4 6 8 7 10 12 14 13 12 15 16 12 12 11 9 12 10 10 6 10 3
12 14 13 11 10 10 12 13 15 16 17 17 17 17 16 15 14 14 14 12 8 11 10 6 7 5 5 6 5 3 7 10 11 11 16 17 16 14 13 12 11 12 7 5 7 9 8
14 12 11 12 13 15 16 18 19 20 20 21 21 21 20 19 16 14 13 12 9 8 7 9 10 3 6 6 2 4 7 11 13 13 13 17 15 16 12 11 12 9 8 6 6 6 7
12 15 16 18 20 21 23 23 23 24 23 23 22 22 22 20 19 17 14 13 10 6 7 13 9 4 5 2 4 4 8 9 10 6 11 14 14 10 10 10 7 6 11 12 12 9 5
19 21 23 25 26 27 28 28 27 27 28 26 25 24 24 22 20 18 15 15 13 10 10 7 7 3 1 4 4 6 6 7 9 13 13 12 11 12 5 3 8 12 14 14 12 11 8
25 26 28 29 30 31 32 33 32 29 28 31 28 28 26 24 21 20 17 16 16 14 9 7 7 4 3 5 6 8 7 8 12 19 19 16 13 11 11 8 5 8 10 12 14 15 13
29 31 31 32 31 27 25 24 23 19 20 22 22 26 27 26 21 21 20 19 17 18 14 12 10 6 4 6 7 5 6 6 11 14 14 12 3 7 6 8 10 9 10 15 17 17 19
33 33 30 25 24 28 27 26 25 23 23 25 24 23 24 25 24 23 22 21 20 20 18 14 12 9 9 10 8 3 1 5 8 12 14 10 6 9 8 8 6 5 9 11 14 16 17
26 24 26 27 30 29 26 27 29 29 26 26 29 27 24 24 24 24 23 21 23 24 22 17 15 17 13 13 10 7 9 9 9 6 5 6 9 16 13 14 9 10 8 11 14 17 16
27 26 28 28 30 28 32 33 34 33 30 28 29 27 24 23 23 24 24 22 27 28 26 24 21 21 19 16 14 13 14 11 10 9 10 13 10 18 17 19 18 18 17 15 16 18 21
29 29 27 32 32 33 34 32 34 35 37 36 30 29 26 21 22 23 27 29 34 36 31 30 26 23 26 21 21 20 19 16 15 16 15 14 13 9 18 22 23 25 25 24 20 18 19
32 31 30 33 35 38 38 37 36 36 39 38 33 33 27 23 22 23 29 33 35 35 34 33 30 28 31 27 26 25 25 22 22 23 19 15 13 15 17 19 21 23 24 24 23 20 20
30 32 33 36 38 38 36 36 37 39 41 38 31 30 30 24 22 25 26 28 34 35 40 36 32 32 32 30 32 31 29 30 29 29 28 23 21 17 20 22 22 22 22 18 16 18 22
32 35 37 36 37 37 39 38 41 42 42 38 30 25 30 31 25 23 25 28 34 37 41 41 38 37 33 30 30 29 31 32 33 33 29 25 21 23 25 23 23 22 20 18 19 25 23
35 37 35 36 37 39 38 39 41 42 42 38 29 26 26 28 30 27 25 27 33 37 40 45 42 40 38 35 32 26 28 27 31 30 27 22 20 20 21 19 21 25 23 21 20 22 20
35 36 38 39 43 42 42 41 42 43 41 37 32 27 24 25 30 32 30 26 28 29 38 44 48 46 41 35 34 33 31 29 27 27 27 23 22 23 21 21 21 25 24 23 21 21 19
42 41 43 44 43 42 41 42 43 42 40 37 31 29 26 23 30 34 34 33 29 34 33 42 51 48 38 38 38 35 29 27 23 22 20 22 25 24 23 18 25 21 22 23 21 19 18
43 44 43 45 43 42 42 43 43 39 38 36 31 29 28 24 27 30 35 33 31 31 33 38 51 45 41 47 39 36 35 32 26 19 18 19 23 25 28 25 22 22 24 25 23 23 22
43 45 45 44 43 43 43 44 41 37 36 35 30 28 26 23 27 31 31 33 33 33 32 33 45 47 46 41 31 34 35 26 27 27 25 23 23 25 27 25 22 23 26 29 29 28 23
48 49 49 48 49 49 45 43 39 36 36 34 29 28 27 24 31 31 28 29 28 30 30 33 39 45 45 53 52 45 46 34 30 31 29 29 25 20 22 24 20 22 24 28 26 25 24
50 48 47 47 47 46 44 40 35 36 33 30 27 24 24 23 28 27 25 26 29 27 26 30 35 44 47 45 47 43 39 35 34 37 32 30 24 25 24 25 23 18 22 26 24 25 26
48 47 48 48 49 46 41 35 34 34 30 29 25 22 23 21 26 28 24 25 24 24 20 29 34 40 51 49 48 42 52 43 40 30 26 30 32 27 26 24 25 21 20 22 23 24 25
Wind_Direction
73 66 63 56 52 48 42 38 36 34 35 35 36 36 34 29 23 15 1 329 282 281 264 253 255 256 251 245 237 239 227 220 227 239 241 252 119 175 70 48 31 50 70 88 107 161 146
73 66 59 54 54 46 38 34 30 28 30 31 29 28 26 23 19 14 7 350 330 286 270 259 253 247 249 245 240 235 225 223 226 237 243 234 261 223 44 46 50 47 48 60 76 224 169
73 63 57 52 46 42 38 33 30 29 28 28 27 25 23 20 17 16 13 10 353 325 294 274 263 267 259 247 237 235 234 226 231 241 248 230 223 231 125 117 272 96 74 43 55 15 93
68 57 50 42 37 36 34 30 28 27 24 22 20 18 18 18 17 14 11 7 1 347 319 287 269 252 253 249 232 235 232 231 229 234 225 238 217 224 259 210 163 158 128 208 21 6 1
64 49 34 23 19 17 17 18 18 20 20 20 17 14 13 12 11 7 4 2 351 336 320 303 276 270 252 243 233 232 231 228 229 233 223 235 232 228 186 189 180 169 185 271 53 17 11
49 28 15 1 349 344 345 351 356 360 2 5 8 8 6 7 4 2 359 356 349 334 329 319 294 268 254 242 229 223 225 222 220 215 221 236 237 221 213 192 202 314 274 311 331 331 239
4 355 348 339 332 327 322 323 328 334 335 335 339 351 355 356 357 360 358 356 354 345 334 332 322 287 259 259 234 225 219 216 216 221 212 231 238 239 196 215 224 239 267 305 307 77 77
325 328 327 325 323 320 322 322 321 320 317 317 317 319 328 338 347 353 355 1 354 346 337 328 333 309 298 264 224 215 220 204 207 218 204 212 225 235 225 212 241 238 234 246 239 189 243
307 310 314 317 321 322 320 315 312 311 310 308 306 306 309 317 330 339 347 356 345 349 328 321 341 318 293 228 212 202 229 211 199 196 197 202 215 222 224 247 227 233 252 243 233 227 252
303 309 310 307 304 302 303 303 304 305 307 309 308 306 306 308 316 323 333 342 352 336 313 285 319 315 279 263 271 224 220 198 195 206 214 210 209 222 238 254 251 253 261 269 268 234 241
303 300 299 297 297 297 298 298 300 301 302 303 303 304 305 305 306 309 316 318 323 332 286 291 288 292 262 280 306 213 209 197 180 186 217 218 216 228 225 230 260 265 254 265 261 277 257
295 296 296 295 296 297 298 297 296 296 296 295 295 296 297 298 298 297 299 302 307 302 309 300 259 236 10 280 253 209 168 172 172 167 201 199 184 181 161 239 240 231 252 269 264 252 249
295 296 298 299 299 300 300 298 295 295 295 292 286 286 287 289 292 286 284 286 291 292 298 299 269 276 127 211 204 172 151 154 159 163 170 175 186 190 199 219 251 252 242 263 264 270 273
298 300 300 301 303 307 309 311 310 303 304 305 299 284 282 282 281 278 275 273 274 285 282 301 262 227 203 179 162 181 154 169 180 175 183 184 212 212 221 236 253 241 248 255 267 277 277
305 306 306 308 307 309 306 309 309 311 306 301 293 290 289 278 269 268 266 265 264 268 268 276 269 245 235 213 208 168 201 238 225 205 198 212 227 240 248 237 238 248 254 272 278 277 278
306 308 310 309 312 312 311 315 315 314 311 307 298 290 287 280 267 262 260 257 255 260 260 260 252 249 243 259 245 242 244 241 187 177 226 222 254 264 263 273 257 263 261 284 282 282 269
306 308 310 315 314 315 315 311 314 316 319 316 302 294 287 280 272 260 252 246 245 248 249 251 247 248 237 235 239 233 237 242 243 244 255 261 259 245 263 276 282 280 282 289 280 281 290
309 304 304 314 313 315 316 311 309 314 316 315 309 294 289 278 272 260 245 238 241 245 247 250 245 246 253 234 237 246 242 245 251 254 247 248 250 236 255 266 273 279 284 288 282 293 298
306 302 300 307 314 312 309 307 308 310 313 312 307 298 285 276 268 256 248 238 240 245 250 249 247 242 255 236 231 243 254 251 260 266 270 268 268 266 265 269 278 280 282 280 276 280 283
307 306 306 308 313 314 312 308 308 309 311 312 304 294 287 278 263 258 251 243 243 240 239 249 248 240 254 240 235 237 248 254 258 263 268 268 269 282 286 264 264 272 277 287 282 289 283
304 306 305 307 308 307 310 308 308 310 310 311 304 287 284 287 276 262 255 246 240 241 242 249 243 244 244 231 234 237 247 253 254 260 261 261 265 274 278 272 275 277 281 272 274 291 287
305 308 307 309 310 309 307 308 308 308 308 307 301 289 277 278 280 277 260 242 239 234 240 241 242 243 250 245 231 230 231 238 250 257 261 272 278 270 267 268 268 274 272 278 275 274 277
308 311 309 307 308 310 309 308 308 308 307 305 297 289 276 271 273 273 262 249 238 241 231 239 242 242 247 253 255 245 235 235 242 252 259 266 266 256 260 268 264 266 272 268 266 273 280
302 305 306 306 308 308 307 307 306 305 302 300 299 292 280 269 271 265 257 254 249 241 232 232 238 242 237 246 247 249 244 245 240 247 251 253 261 264 263 272 265 264 259 261 264 264 263
303 303 304 306 307 306 308 307 305 300 299 296 296 292 283 276 269 259 261 262 259 251 242 227 231 236 235 233 237 248 242 237 238 239 251 263 274 280 278 279 272 259 252 247 252 256 257
300 302 304 304 306 308 307 306 302 298 297 293 292 289 286 275 265 258 261 260 257 253 245 233 228 233 234 249 230 243 230 231 240 252 262 262 273 279 273 278 268 255 251 247 247 257 266
297 299 301 302 302 304 303 300 295 297 295 291 287 286 284 279 267 267 261 261 257 249 241 234 228 231 227 227 236 238 239 218 236 250 256 259 269 279 284 283 268 250 247 250 252 256 262
296 298 300 302 302 303 299 295 292 297 292 290 291 288 289 281 267 268 256 255 257 252 242 235 230 228 231 238 239 244 236 234 247 247 252 258 262 275 282 275 260 261 260 255 257 255 263
296 299 301 304 303 301 293 290 293 294 289 291 292 291 289 281 271 271 254 247 257 258 250 240 233 229 229 229 233 247 243 247 248 234 248 257 269 271 279 274 267 269 270 263 262 259 260
Height
5905 5904 5903 5902 5900 5899 5897 5895 5893 5890 5888 5886 5884 5882 5880 5878 5876 5874 5872 5871 5870 5870 5869 5869 5868 5867 5867 5867 5868 5867 5868 5868 5868 5868 5870 5869 5873 5873 5873 5873 5871 5871 5871 5870 5872 5871 5874
5906 5906 5905 5904 5902 5901 5899 5897 5895 5892 5889 5887 5885 5884 5881 5879 5877 5874 5872 5870 5869 5868 5868 5867 5866 5865 5864 5865 5865 5865 5865 5866 5867 5868 5869 5871 5873 5874 5874 5874 5875 5873 5873 5873 5873 5870 5872
5908 5907 5906 5905 5904 5902 5900 5898 5896 5894 5891 5889 5887 5884 5882 5880 5877 5875 5872 5870 5868 5867 5866 5865 5864 5863 5862 5863 5863 5863 5864 5865 5866 5867 5870 5872 5873 5873 5875 5876 5875 5875 5874 5874 5876 5876 5875
5909 5908 5907 5906 5904 5903 5901 5899 5897 5895 5893 5890 5888 5885 5883 5880 5877 5875 5872 5870 5868 5866 5864 5863 5862 5860 5859 5859 5860 5861 5862 5863 5865 5866 5869 5868 5870 5872 5874 5875 5876 5875 5875 5874 5875 5875 5876
5910 5909 5908 5907 5905 5904 5902 5900 5898 5896 5894 5892 5889 5886 5883 5880 5877 5875 5872 5870 5867 5865 5862 5861 5860 5858 5857 5857 5858 5859 5860 5862 5864 5866 5867 5865 5868 5871 5873 5874 5875 5876 5875 5875 5875 5876 5876
5911 5910 5908 5907 5905 5904 5902 5900 5899 5896 5894 5892 5890 5887 5884 5881 5878 5875 5872 5870 5867 5864 5861 5859 5858 5858 5857 5856 5856 5856 5858 5859 5861 5864 5865 5865 5868 5869 5872 5874 5874 5875 5874 5875 5875 5877 5876
5912 5911 5909 5907 5905 5903 5901 5899 5898 5896 5894 5892 5889 5887 5884 5881 5878 5875 5872 5870 5869 5866 5861 5859 5857 5855 5855 5855 5854 5855 5856 5857 5859 5861 5864 5865 5866 5867 5871 5871 5873 5874 5873 5874 5876 5877 5878
5911 5910 5908 5906 5904 5902 5900 5898 5896 5895 5892 5890 5888 5885 5883 5880 5877 5875 5872 5869 5867 5864 5862 5859 5857 5855 5854 5854 5854 5854 5855 5856 5857 5859 5862 5864 5864 5866 5867 5869 5870 5871 5872 5874 5875 5877 5878
5909 5908 5906 5904 5902 5901 5899 5897 5895 5893 5890 5888 5885 5883 5881 5878 5876 5874 5871 5869 5866 5863 5861 5860 5858 5856 5855 5854 5852 5853 5855 5855 5857 5859 5860 5861 5863 5864 5866 5866 5868 5869 5869 5873 5874 5875 5877
5907 5906 5904 5903 5901 5899 5897 5895 5892 5890 5888 5886 5883 5880 5878 5877 5876 5873 5871 5868 5865 5862 5861 5861 5860 5857 5856 5853 5852 5853 5854 5856 5856 5857 5860 5861 5862 5863 5865 5866 5867 5866 5869 5870 5871 5873 5874
5905 5903 5902 5900 5898 5895 5893 5891 5889 5886 5884 5882 5879 5876 5874 5873 5872 5871 5870 5866 5864 5862 5862 5860 5858 5857 5854 5854 5853 5853 5853 5853 5855 5857 5860 5861 5862 5863 5865 5864 5863 5866 5866 5868 5868 5870 5871
5902 5900 5898 5895 5893 5891 5888 5885 5883 5881 5878 5877 5875 5872 5870 5869 5868 5867 5866 5864 5862 5862 5858 5857 5855 5854 5853 5852 5852 5851 5851 5852 5854 5855 5857 5860 5862 5862 5862 5863 5863 5863 5864 5865 5866 5867 5869
5897 5895 5892 5889 5886 5884 5881 5878 5875 5874 5872 5868 5868 5865 5864 5864 5865 5863 5861 5860 5860 5857 5857 5856 5853 5851 5853 5852 5851 5850 5851 5852 5853 5854 5856 5859 5859 5860 5861 5862 5862 5861 5862 5863 5864 5863 5865
5891 5889 5886 5883 5880 5877 5874 5871 5868 5867 5865 5862 5860 5858 5857 5858 5859 5857 5857 5856 5854 5854 5853 5852 5850 5850 5850 5851 5850 5850 5850 5851 5853 5853 5855 5857 5859 5859 5859 5859 5860 5860 5860 5860 5860 5861 5862
5885 5882 5879 5877 5874 5871 5868 5865 5863 5862 5859 5855 5853 5851 5851 5851 5851 5852 5851 5850 5849 5848 5848 5849 5848 5846 5847 5848 5848 5848 5848 5850 5850 5852 5854 5855 5855 5856 5857 5857 5858 5858 5858 5859 5858 5859 5859
5879 5876 5874 5871 5868 5865 5862 5859 5857 5855 5854 5850 5844 5844 5845 5843 5843 5845 5845 5845 5843 5842 5843 5844 5844 5843 5844 5844 5845 5845 5846 5848 5850 5852 5853 5853 5853 5852 5853 5854 5855 5855 5856 5856 5855 5854 5855
5873 5870 5868 5865 5862 5859 5856 5853 5850 5846 5845 5843 5837 5836 5836 5835 5836 5837 5838 5838 5835 5834 5837 5838 5839 5839 5840 5840 5842 5842 5843 5845 5846 5848 5849 5848 5849 5850 5850 5850 5850 5851 5851 5852 5852 5852 5850
5867 5864 5862 5859 5856 5852 5848 5845 5842 5839 5835 5835 5830 5826 5827 5827 5828 5828 5829 5828 5826 5825 5830 5832 5834 5835 5835 5835 5837 5839 5840 5842 5843 5844 5845 5846 5847 5847 5848 5847 5847 5847 5848 5848 5848 5848 5847
5861 5859 5856 5853 5849 5844 5840 5836 5834 5831 5828 5825 5821 5815 5817 5818 5819 5818 5818 5820 5818 5819 5822 5825 5828 5829 5830 5831 5833 5834 5835 5838 5838 5838 5839 5842 5844 5844 5845 5845 5844 5843 5843 5842 5843 5843 5842
5855 5851 5849 5845 5841 5837 5833 5829 5826 5823 5819 5817 5814 5808 5805 5807 5809 5808 5810 5813 5813 5814 5814 5815 5821 5822 5824 5825 5826 5829 5831 5833 5834 5834 5834 5836 5838 5840 5840 5839 5839 5839 5837 5839 5839 5838 5837
5848 5844 5841 5837 5833 5830 5825 5821 5817 5813 5809 5807 5805 5803 5797 5795 5797 5801 5802 5804 5803 5806 5808 5809 5813 5815 5817 5818 5820 5824 5826 5827 5829 5828 5829 5830 5833 5835 5832 5832 5834 5834 5834 5835 5836 5834 5833
5839 5835 5831 5828 5824 5821 5817 5813 5809 5804 5800 5797 5796 5795 5792 5790 5786 5788 5791 5793 5795 5798 5802 5802 5805 5807 5809 5812 5815 5816 5818 5820 5821 5823 5823 5825 5827 5828 5827 5827 5828 5828 5828 5829 5830 5829 5829
5830 5826 5823 5819 5815 5812 5807 5803 5798 5794 5790 5787 5785 5785 5783 5783 5780 5777 5777 5782 5786 5788 5792 5795 5795 5800 5803 5806 5807 5811 5811 5813 5816 5817 5818 5820 5821 5823 5823 5822 5822 5822 5823 5823 5825 5825 5826
5820 5817 5813 5810 5806 5801 5797 5793 5788 5785 5780 5777 5776 5774 5774 5774 5769 5768 5768 5770 5774 5777 5781 5785 5785 5790 5798 5798 5800 5803 5805 5807 5809 5811 5813 5814 5814 5815 5816 5817 5816 5818 5817 5818 5819 5819 5822
5810 5807 5803 5800 5795 5791 5786 5782 5778 5775 5771 5768 5767 5764 5763 5763 5760 5757 5757 5761 5762 5765 5769 5774 5774 5782 5787 5787 5791 5796 5798 5801 5803 5806 5808 5808 5809 5810 5809 5811 5811 5810 5811 5812 5813 5814 5816
5799 5796 5793 5789 5784 5780 5776 5772 5768 5764 5761 5758 5757 5754 5753 5753 5749 5747 5749 5749 5751 5753 5758 5763 5765 5770 5776 5776 5776 5783 5788 5795 5797 5800 5803 5804 5804 5805 5804 5805 5804 5803 5804 5806 5808 5809 5811
5788 5784 5781 5777 5772 5768 5764 5760 5757 5754 5751 5748 5747 5745 5743 5743 5737 5739 5741 5741 5742 5743 5747 5750 5754 5757 5763 5763 5768 5774 5780 5782 5788 5794 5796 5797 5798 5798 5797 5799 5800 5797 5798 5799 5803 5807 5806
5775 5771 5767 5763 5759 5756 5752 5749 5746 5744 5741 5739 5738 5737 5735 5735 5729 5730 5732 5733 5732 5735 5738 5740 5744 5746 5750 5756 5759 5765 5770 5774 5778 5784 5788 5790 5790 5792 5793 5793 5795 5795 5794 5795 5798 5798 5799
5762 5759 5755 5751 5748 5745 5742 5739 5737 5734 5732 5729 5729 5729 5726 5726 5724 5723 5724 5724 5727 5728 5732 5732 5735 5737 5738 5746 5752 5757 5759 5766 5770 5774 5780 5782 5784 5786 5788 5788 5789 5790 5791 5791 5791 5792 5793